User: anonymous   Login
Location: Chacón
(10.5789°N, 66.9317°W)
Time: 12:36:08
(UTC+00:00)
Language:

CZ-4B R/B - Orbit

View from above orbital plane
View from above orbital plane
View from above satellite
View from above satellite

Ground track
Ground track

The orbit data is extracted from the following two-line orbital elements,

1 27432U 02024C   24199.15849108  .00000107  00000-0  79146-4 0  9996
2 27432  98.9733 241.6217 0049285 286.4936 142.8317 14.14336098144428
Epoch (UTC): 17 July 2024 03:48:13
Eccentricity: 0.0049285
inclination: 98.9733°
perigee height: 809 km
apogee height: 880 km
right ascension of ascending node: 241.6217°
argument of perigee: 286.4936°
revolutions per day: 14.14336098
mean anomaly at epoch: 142.8317°
orbit number at epoch: 14442

The dashed part of the orbit path shows where the satellite is in the earth's shadow,  

DLR